30.06.2024;16:00;90
30.06.2024;15:00;91
30.06.2024;14:00;98
30.06.2024;13:00;98
30.06.2024;12:00;91
30.06.2024;11:00;91
30.06.2024;10:00;77
30.06.2024;09:00;73
30.06.2024;08:00;66
30.06.2024;07:00;41
30.06.2024;06:00;31
30.06.2024;05:00;31
30.06.2024;04:00;27
30.06.2024;03:00;40
30.06.2024;02:00;43
30.06.2024;01:00;52
30.06.2024;00:00;63
29.06.2024;23:00;58
29.06.2024;22:00;64
29.06.2024;21:00;80
29.06.2024;20:00;93
29.06.2024;19:00;93
29.06.2024;18:00;99
29.06.2024;17:00;107
29.06.2024;16:00;102
29.06.2024;15:00;99
29.06.2024;14:00;95
29.06.2024;13:00;89
29.06.2024;12:00;81
29.06.2024;11:00;69
29.06.2024;10:00;46
29.06.2024;09:00;34
29.06.2024;08:00;30
29.06.2024;07:00;11
29.06.2024;06:00;5
29.06.2024;05:00;17
29.06.2024;04:00;26
29.06.2024;03:00;33
29.06.2024;02:00;32
29.06.2024;01:00;35
29.06.2024;00:00;42
28.06.2024;23:00;64
28.06.2024;22:00;79
28.06.2024;21:00;88
28.06.2024;20:00;104
28.06.2024;19:00;110
28.06.2024;18:00;107
28.06.2024;17:00;111
